Time,TemperatureF,DewpointF,PressureIn,WindDirection,WindDirectionDegrees,WindSpeedMPH,WindSpeedGustMPH,Humidity,HourlyPrecipIn,Conditions,Clouds,dailyrainin,SolarRadiationWatts/m^2,SoftwareType,DateUTC
2013-10-24 00:01:00,37.5,33.1,29.92,WNW,296,0.0,0.0,84,0.00,BKN,SCT,0.00,0.0,WeatherDisplay:10.37,2013-10-24 04:01:00,
2013-10-24 00:02:00,37.5,33.1,29.92,WNW,294,0.0,0.0,84,0.00,BKN,SCT,0.00,0.0,WeatherDisplay:10.37,2013-10-24 04:02:00,
2013-10-24 00:04:00,37.5,33.1,29.92,WNW,294,0.0,1.2,84,0.00,BKN,SCT,0.00,0.0,WeatherDisplay:10.37,2013-10-24 04:04:00,
2013-10-24 00:09:00,37.4,33.0,29.92,WNW,293,0.5,2.3,84,0.00,BKN,SCT,0.00,0.0,WeatherDisplay:10.37,2013-10-24 04:09:00,
2013-10-24 00:14:00,37.3,32.9,29.92,WNW,293,0.0,0.0,84,0.00,BKN,SCT,0.00,0.0,WeatherDisplay:10.37,2013-10-24 04:14:00,
2013-10-24 00:19:00,37.2,32.8,29.92,WNW,293,0.0,1.0,84,0.00,BKN,SCT,0.00,0.0,WeatherDisplay:10.37,2013-10-24 04:19:00,
2013-10-24 00:24:00,37.0,32.6,29.92,WNW,293,0.1,1.0,84,0.00,BKN,SCT,0.00,0.0,WeatherDisplay:10.37,2013-10-24 04:24:00,
2013-10-24 00:29:00,36.8,32.4,29.92,West,268,0.0,1.2,84,0.00,BKN,SCT,0.00,0.0,WeatherDisplay:10.37,2013-10-24 04:29:00,
2013-10-24 00:34:00,36.7,32.3,29.92,West,268,0.0,0.0,84,0.00,BKN,SCT,0.00,0.0,WeatherDisplay:10.37,2013-10-24 04:34:00,
2013-10-24 00:39:00,36.5,32.4,29.92,West,268,0.0,0.0,85,0.00,BKN,SCT,0.00,0.0,WeatherDisplay:10.37,2013-10-24 04:39:00,
2013-10-24 00:44:00,36.3,32.2,29.91,West,268,0.0,0.0,85,0.00,BKN,SCT,0.00,0.0,WeatherDisplay:10.37,2013-10-24 04:44:00,
2013-10-24 00:49:00,36.1,32.3,29.92,West,268,0.0,0.0,86,0.00,BKN,SCT,0.00,0.0,WeatherDisplay:10.37,2013-10-24 04:49:00,
2013-10-24 00:54:00,35.8,32.0,29.91,West,268,0.0,0.0,86,0.00,BKN,SCT,0.00,0.0,WeatherDisplay:10.37,2013-10-24 04:54:00,
2013-10-24 00:59:00,35.5,32.0,29.91,West,268,0.0,0.0,87,0.00,BKN,SCT,0.00,0.0,WeatherDisplay:10.37,2013-10-24 04:59:00,
2013-10-24 01:04:00,35.3,31.8,29.91,West,268,0.0,0.0,87,0.00,SCT,,0.00,0.0,WeatherDisplay:10.37,2013-10-24 05:04:00,
2013-10-24 01:09:00,35.0,31.5,29.92,West,268,0.0,0.0,87,0.00,SCT,,0.00,0.0,WeatherDisplay:10.37,2013-10-24 05:09:00,
2013-10-24 01:14:00,34.8,31.6,29.92,West,268,0.0,0.0,88,0.00,SCT,,0.00,0.0,WeatherDisplay:10.37,2013-10-24 05:14:00,
2013-10-24 01:19:00,34.6,31.4,29.92,West,268,0.0,1.2,88,0.00,SCT,,0.00,0.0,WeatherDisplay:10.37,2013-10-24 05:19:00,
2013-10-24 01:24:00,34.4,31.5,29.92,West,268,0.0,0.0,89,0.00,SCT,,0.00,0.0,WeatherDisplay:10.37,2013-10-24 05:24:00,
2013-10-24 01:29:00,34.2,31.3,29.92,West,268,0.0,0.0,89,0.00,SCT,,0.00,0.0,WeatherDisplay:10.37,2013-10-24 05:29:00,
2013-10-24 01:34:00,34.1,31.2,29.92,West,268,0.0,0.0,89,0.00,SCT,,0.00,0.0,WeatherDisplay:10.37,2013-10-24 05:34:00,
2013-10-24 01:39:00,34.0,31.1,29.92,West,268,0.0,0.0,89,0.00,SCT,,0.00,0.0,WeatherDisplay:10.37,2013-10-24 05:39:00,
2013-10-24 01:44:00,33.8,30.9,29.92,West,268,0.0,0.0,89,0.00,SCT,,0.00,0.0,WeatherDisplay:10.37,2013-10-24 05:44:00,
2013-10-24 01:49:00,33.6,31.0,29.92,West,269,0.0,0.0,90,0.00,SCT,,0.00,0.0,WeatherDisplay:10.37,2013-10-24 05:49:00,
2013-10-24 01:54:00,33.5,30.9,29.92,West,269,0.0,0.0,90,0.00,SCT,,0.00,0.0,WeatherDisplay:10.37,2013-10-24 05:54:00,
2013-10-24 01:59:00,33.4,30.8,29.92,West,269,0.0,0.0,90,0.00,SCT,,0.00,0.0,WeatherDisplay:10.37,2013-10-24 05:59:00,
2013-10-24 02:04:00,33.3,30.7,29.92,West,269,0.0,0.0,90,0.00,CLR,SCT,0.00,0.0,WeatherDisplay:10.37,2013-10-24 06:04:00,
2013-10-24 02:09:00,33.2,30.6,29.92,West,269,0.0,0.0,90,0.00,CLR,SCT,0.00,0.0,WeatherDisplay:10.37,2013-10-24 06:09:00,
2013-10-24 02:14:00,33.1,30.5,29.92,West,269,0.0,0.0,90,0.00,CLR,SCT,0.00,0.0,WeatherDisplay:10.37,2013-10-24 06:14:00,
2013-10-24 02:19:00,33.1,30.5,29.93,West,269,0.0,0.0,90,0.00,CLR,SCT,0.00,0.0,WeatherDisplay:10.37,2013-10-24 06:19:00,
2013-10-24 02:24:00,33.0,30.4,29.93,West,269,0.0,0.0,90,0.00,CLR,SCT,0.00,0.0,WeatherDisplay:10.37,2013-10-24 06:24:00,
2013-10-24 02:29:00,33.0,30.4,29.93,West,269,0.0,0.0,90,0.00,CLR,SCT,0.00,0.0,WeatherDisplay:10.37,2013-10-24 06:29:00,
2013-10-24 02:34:00,33.0,30.7,29.93,West,269,0.0,0.0,91,0.00,CLR,SCT,0.00,0.0,WeatherDisplay:10.37,2013-10-24 06:34:00,
2013-10-24 02:39:00,33.0,30.7,29.93,West,269,0.0,0.0,91,0.00,CLR,SCT,0.00,0.0,WeatherDisplay:10.37,2013-10-24 06:39:00,
2013-10-24 02:44:00,33.0,30.7,29.93,West,269,0.0,0.0,91,0.00,CLR,SCT,0.00,0.0,WeatherDisplay:10.37,2013-10-24 06:44:00,
2013-10-24 02:49:00,33.0,30.7,29.93,West,268,0.0,0.0,91,0.00,CLR,SCT,0.00,0.0,WeatherDisplay:10.37,2013-10-24 06:49:00,
2013-10-24 02:54:00,33.0,30.7,29.93,West,269,0.0,0.0,91,0.00,CLR,SCT,0.00,0.0,WeatherDisplay:10.37,2013-10-24 06:54:00,
2013-10-24 02:59:00,32.9,30.6,29.93,West,269,0.1,1.0,91,0.00,CLR,SCT,0.00,0.0,WeatherDisplay:10.37,2013-10-24 06:59:00,
2013-10-24 03:04:00,32.8,30.5,29.93,West,269,0.0,0.0,91,0.00,FEW,SCT,0.00,0.0,WeatherDisplay:10.37,2013-10-24 07:04:00,
2013-10-24 03:09:00,32.9,30.6,29.93,West,269,0.0,0.0,91,0.00,FEW,SCT,0.00,0.0,WeatherDisplay:10.37,2013-10-24 07:09:00,
2013-10-24 03:14:00,33.1,30.8,29.93,West,269,0.0,0.0,91,0.00,FEW,SCT,0.00,0.0,WeatherDisplay:10.37,2013-10-24 07:14:00,
2013-10-24 03:19:00,33.1,30.5,29.93,West,272,0.0,0.0,90,0.00,FEW,SCT,0.00,0.0,WeatherDisplay:10.37,2013-10-24 07:19:00,
2013-10-24 03:24:00,33.1,30.5,29.93,West,272,0.0,0.0,90,0.00,FEW,SCT,0.00,0.0,WeatherDisplay:10.37,2013-10-24 07:24:00,
2013-10-24 03:29:00,33.1,30.5,29.93,West,272,0.0,0.0,90,0.00,FEW,SCT,0.00,0.0,WeatherDisplay:10.37,2013-10-24 07:29:00,
2013-10-24 03:34:00,33.0,30.4,29.93,WNW,284,0.0,0.0,90,0.00,FEW,SCT,0.00,0.0,WeatherDisplay:10.37,2013-10-24 07:34:00,
2013-10-24 03:39:00,33.0,30.4,29.93,WNW,284,0.1,1.2,90,0.00,FEW,SCT,0.00,0.0,WeatherDisplay:10.37,2013-10-24 07:39:00,
2013-10-24 03:44:00,33.1,30.5,29.93,WNW,296,0.2,2.0,90,0.00,FEW,SCT,0.00,0.0,WeatherDisplay:10.37,2013-10-24 07:44:00,
2013-10-24 03:49:00,33.3,30.7,29.93,NW,309,0.0,0.0,90,0.00,FEW,SCT,0.00,0.0,WeatherDisplay:10.37,2013-10-24 07:49:00,
2013-10-24 03:54:00,33.3,30.7,29.93,NW,309,0.0,0.0,90,0.00,FEW,SCT,0.00,0.0,WeatherDisplay:10.37,2013-10-24 07:54:00,
2013-10-24 03:59:00,33.2,30.6,29.93,NW,309,0.0,0.0,90,0.00,FEW,SCT,0.00,0.0,WeatherDisplay:10.37,2013-10-24 07:59:00,
2013-10-24 04:04:00,33.0,30.4,29.93,NW,309,0.0,0.0,90,0.00,CLR,SCT,0.00,0.0,WeatherDisplay:10.37,2013-10-24 08:04:00,
2013-10-24 04:09:00,32.8,30.2,29.93,NW,309,0.0,0.0,90,0.00,CLR,SCT,0.00,0.0,WeatherDisplay:10.37,2013-10-24 08:09:00,
2013-10-24 04:14:00,32.6,30.0,29.93,NW,309,0.0,0.0,90,0.00,CLR,SCT,0.00,0.0,WeatherDisplay:10.37,2013-10-24 08:14:00,
2013-10-24 04:19:00,32.4,29.8,29.93,NW,309,0.0,0.0,90,0.00,CLR,SCT,0.00,0.0,WeatherDisplay:10.37,2013-10-24 08:19:00,
2013-10-24 04:24:00,32.2,29.6,29.93,NW,309,0.0,0.0,90,0.00,CLR,SCT,0.00,0.0,WeatherDisplay:10.37,2013-10-24 08:24:00,
2013-10-24 04:29:00,32.0,29.7,29.93,NW,309,0.0,0.0,91,0.00,CLR,SCT,0.00,0.0,WeatherDisplay:10.37,2013-10-24 08:29:00,
2013-10-24 04:34:00,31.9,29.6,29.93,NW,309,0.0,0.0,91,0.00,CLR,SCT,0.00,0.0,WeatherDisplay:10.37,2013-10-24 08:34:00,
2013-10-24 04:39:00,31.9,29.8,29.93,NW,309,0.1,1.2,92,0.00,CLR,SCT,0.00,0.0,WeatherDisplay:10.37,2013-10-24 08:39:00,
2013-10-24 04:44:00,32.0,29.9,29.94,NW,309,0.0,0.0,92,0.00,CLR,SCT,0.00,0.0,WeatherDisplay:10.37,2013-10-24 08:44:00,
2013-10-24 04:49:00,32.1,30.0,29.94,NW,309,0.1,1.2,92,0.00,CLR,SCT,0.00,0.0,WeatherDisplay:10.37,2013-10-24 08:49:00,
2013-10-24 04:54:00,32.1,30.0,29.94,NW,309,0.0,0.0,92,0.00,CLR,SCT,0.00,0.0,WeatherDisplay:10.37,2013-10-24 08:54:00,
2013-10-24 04:59:00,32.0,29.9,29.94,NW,309,0.0,0.0,92,0.00,CLR,SCT,0.00,0.0,WeatherDisplay:10.37,2013-10-24 08:59:00,
2013-10-24 05:04:00,32.0,29.9,29.94,WSW,250,0.1,0.0,92,0.00,CLR,SCT,0.00,0.0,WeatherDisplay:10.37,2013-10-24 09:04:00,
2013-10-24 05:09:00,31.9,29.8,29.94,WSW,250,0.0,0.0,92,0.00,CLR,SCT,0.00,0.0,WeatherDisplay:10.37,2013-10-24 09:09:00,
2013-10-24 05:14:00,31.8,29.7,29.94,West,269,0.0,1.2,92,0.00,CLR,SCT,0.00,0.0,WeatherDisplay:10.37,2013-10-24 09:14:00,
2013-10-24 05:19:00,31.8,29.7,29.94,West,274,0.4,2.0,92,0.00,CLR,SCT,0.00,0.0,WeatherDisplay:10.37,2013-10-24 09:19:00,
2013-10-24 05:24:00,31.9,30.1,29.94,WNW,282,0.0,0.0,93,0.00,CLR,SCT,0.00,0.0,WeatherDisplay:10.37,2013-10-24 09:24:00,
2013-10-24 05:29:00,31.9,30.1,29.94,WNW,282,0.0,0.0,93,0.00,CLR,SCT,0.00,0.0,WeatherDisplay:10.37,2013-10-24 09:29:00,
2013-10-24 05:34:00,31.9,30.1,29.95,WNW,282,0.0,0.0,93,0.00,CLR,SCT,0.00,0.0,WeatherDisplay:10.37,2013-10-24 09:34:00,
2013-10-24 05:39:00,31.9,30.1,29.95,WNW,282,0.0,0.0,93,0.00,CLR,SCT,0.00,0.0,WeatherDisplay:10.37,2013-10-24 09:39:00,
2013-10-24 05:44:00,31.8,30.0,29.94,WNW,282,0.0,0.0,93,0.00,CLR,SCT,0.00,0.0,WeatherDisplay:10.37,2013-10-24 09:44:00,
2013-10-24 05:49:00,31.8,30.0,29.95,WNW,282,0.0,0.0,93,0.00,CLR,SCT,0.00,0.0,WeatherDisplay:10.37,2013-10-24 09:49:00,
2013-10-24 05:54:00,31.7,29.9,29.95,WNW,282,0.0,0.0,93,0.00,CLR,SCT,0.00,0.0,WeatherDisplay:10.37,2013-10-24 09:54:00,
2013-10-24 05:59:00,31.6,29.8,29.95,WNW,282,0.0,0.0,93,0.00,CLR,SCT,0.00,0.0,WeatherDisplay:10.37,2013-10-24 09:59:00,
2013-10-24 06:04:00,31.5,29.7,29.95,WNW,282,0.0,0.0,93,0.00,FEW,SCT,0.00,0.0,WeatherDisplay:10.37,2013-10-24 10:04:00,
2013-10-24 06:09:00,31.5,29.7,29.95,WNW,282,0.0,0.0,93,0.00,FEW,SCT,0.00,0.0,WeatherDisplay:10.37,2013-10-24 10:09:00,
2013-10-24 06:14:00,31.4,29.6,29.95,WNW,282,0.0,0.0,93,0.00,FEW,SCT,0.00,0.0,WeatherDisplay:10.37,2013-10-24 10:14:00,
2013-10-24 06:19:00,31.4,29.9,29.95,WNW,282,0.0,0.0,94,0.00,FEW,SCT,0.00,0.0,WeatherDisplay:10.37,2013-10-24 10:19:00,
2013-10-24 06:24:00,31.5,30.0,29.96,WNW,282,0.2,1.2,94,0.00,FEW,SCT,0.00,0.0,WeatherDisplay:10.37,2013-10-24 10:24:00,
2013-10-24 06:29:00,31.8,30.5,29.96,WNW,282,0.0,0.0,95,0.00,FEW,SCT,0.00,0.0,WeatherDisplay:10.37,2013-10-24 10:29:00,
2013-10-24 06:34:00,32.0,30.7,29.96,WNW,302,0.0,0.0,95,0.00,FEW,SCT,0.00,0.0,WeatherDisplay:10.37,2013-10-24 10:34:00,
2013-10-24 06:39:00,32.1,30.8,29.96,WNW,302,0.0,0.0,95,0.00,FEW,SCT,0.00,0.0,WeatherDisplay:10.37,2013-10-24 10:39:00,
2013-10-24 06:44:00,32.2,30.7,29.96,WNW,302,0.0,1.2,94,0.00,FEW,SCT,0.00,0.0,WeatherDisplay:10.37,2013-10-24 10:44:00,
2013-10-24 06:49:00,32.3,30.8,29.96,WNW,302,0.0,0.0,94,0.00,FEW,SCT,0.00,0.0,WeatherDisplay:10.37,2013-10-24 10:49:00,
2013-10-24 06:54:00,32.3,30.8,29.96,WNW,302,0.0,0.0,94,0.00,FEW,SCT,0.00,0.0,WeatherDisplay:10.37,2013-10-24 10:54:00,
2013-10-24 07:00:00,32.3,30.8,29.96,WNW,302,0.0,0.0,94,0.00,FEW,SCT,0.00,0.0,WeatherDisplay:10.37,2013-10-24 11:00:00,
2013-10-24 07:05:00,32.3,30.8,29.96,WNW,302,0.0,0.0,94,0.00,OVC,SCT,0.00,0.0,WeatherDisplay:10.37,2013-10-24 11:05:00,
2013-10-24 07:10:00,32.4,30.9,29.97,WNW,302,0.0,0.0,94,0.00,OVC,SCT,0.00,0.0,WeatherDisplay:10.37,2013-10-24 11:10:00,
2013-10-24 07:15:00,32.4,30.9,29.97,WNW,301,0.0,0.0,94,0.00,OVC,SCT,0.00,0.0,WeatherDisplay:10.37,2013-10-24 11:15:00,
2013-10-24 07:20:00,32.5,31.0,29.97,WNW,301,0.0,0.0,94,0.00,OVC,SCT,0.00,0.0,WeatherDisplay:10.37,2013-10-24 11:20:00,
2013-10-24 07:25:00,32.5,31.0,29.97,WNW,301,0.0,0.0,94,0.00,OVC,SCT,0.00,0.0,WeatherDisplay:10.37,2013-10-24 11:25:00,
2013-10-24 07:30:00,32.5,31.0,29.97,WNW,301,0.0,0.0,94,0.00,OVC,SCT,0.00,0.0,WeatherDisplay:10.37,2013-10-24 11:30:00,
2013-10-24 07:35:00,32.5,31.0,29.97,WNW,301,0.0,0.0,94,0.00,OVC,SCT,0.00,0.0,WeatherDisplay:10.37,2013-10-24 11:35:00,
2013-10-24 07:40:00,32.5,31.0,29.97,WNW,301,0.0,0.0,94,0.00,OVC,SCT,0.00,0.0,WeatherDisplay:10.37,2013-10-24 11:40:00,
2013-10-24 07:45:00,32.5,31.0,29.97,WNW,301,0.0,0.0,94,0.00,OVC,SCT,0.00,0.0,WeatherDisplay:10.37,2013-10-24 11:45:00,
2013-10-24 07:50:00,32.5,31.0,29.97,WNW,301,0.0,0.0,94,0.00,OVC,SCT,0.00,0.0,WeatherDisplay:10.37,2013-10-24 11:50:00,
2013-10-24 07:55:00,32.5,31.0,29.97,WNW,301,0.0,0.0,94,0.00,OVC,SCT,0.00,0.0,WeatherDisplay:10.37,2013-10-24 11:55:00,
2013-10-24 08:00:00,32.5,31.0,29.97,WNW,301,0.0,0.0,94,0.00,OVC,SCT,0.00,0.0,WeatherDisplay:10.37,2013-10-24 12:00:00,
2013-10-24 08:05:00,32.5,31.0,29.97,WNW,301,0.0,0.0,94,0.00,OVC,SCT,0.00,0.0,WeatherDisplay:10.37,2013-10-24 12:05:00,
2013-10-24 08:10:00,32.5,31.0,29.97,WNW,284,0.2,2.3,94,0.00,OVC,SCT,0.00,5.0,WeatherDisplay:10.37,2013-10-24 12:10:00,
2013-10-24 08:15:00,32.5,31.0,29.98,WNW,284,0.0,0.0,94,0.00,OVC,SCT,0.00,7.0,WeatherDisplay:10.37,2013-10-24 12:15:00,
2013-10-24 08:20:00,32.6,31.1,29.98,WNW,284,0.0,1.2,94,0.00,OVC,SCT,0.00,9.0,WeatherDisplay:10.37,2013-10-24 12:20:00,
2013-10-24 08:25:00,32.7,31.2,29.98,WNW,284,0.0,0.0,94,0.00,OVC,SCT,0.00,12.0,WeatherDisplay:10.37,2013-10-24 12:25:00,
2013-10-24 08:30:00,32.8,31.3,29.98,WNW,284,0.0,0.0,94,0.00,OVC,SCT,0.00,14.0,WeatherDisplay:10.37,2013-10-24 12:30:00,
2013-10-24 08:35:00,33.0,31.5,29.98,WNW,290,0.0,0.0,94,0.00,OVC,SCT,0.00,16.0,WeatherDisplay:10.37,2013-10-24 12:35:00,
2013-10-24 08:40:00,33.3,32.0,29.98,WNW,285,0.2,1.2,95,0.00,OVC,SCT,0.00,19.0,WeatherDisplay:10.37,2013-10-24 12:40:00,
2013-10-24 08:45:00,33.5,32.2,29.98,WNW,285,0.0,0.0,95,0.00,OVC,SCT,0.00,25.0,WeatherDisplay:10.37,2013-10-24 12:45:00,
2013-10-24 08:50:00,33.8,32.5,29.99,WNW,285,0.2,1.2,95,0.00,OVC,SCT,0.00,28.0,WeatherDisplay:10.37,2013-10-24 12:50:00,
2013-10-24 08:55:00,34.0,32.5,29.99,WNW,284,0.2,1.2,94,0.00,OVC,SCT,0.00,30.0,WeatherDisplay:10.37,2013-10-24 12:55:00,
2013-10-24 09:00:00,34.4,32.9,29.99,WNW,297,0.5,1.2,94,0.00,OVC,SCT,0.00,33.0,WeatherDisplay:10.37,2013-10-24 13:00:00,
2013-10-24 09:05:00,34.7,32.9,29.99,WSW,244,0.5,2.0,93,0.00,BKN,SCT,0.00,35.0,WeatherDisplay:10.37,2013-10-24 13:05:00,
2013-10-24 09:10:00,34.9,33.1,29.99,West,272,0.5,2.3,93,0.00,BKN,SCT,0.00,39.0,WeatherDisplay:10.37,2013-10-24 13:10:00,
2013-10-24 09:15:00,35.0,33.2,30.00,WNW,286,0.1,2.3,93,0.00,BKN,SCT,0.00,42.0,WeatherDisplay:10.37,2013-10-24 13:15:00,
2013-10-24 09:20:00,35.2,33.1,30.00,WNW,287,0.2,1.0,92,0.00,BKN,SCT,0.00,47.0,WeatherDisplay:10.37,2013-10-24 13:20:00,
2013-10-24 09:25:00,35.4,33.3,30.00,WNW,295,0.1,1.2,92,0.00,BKN,SCT,0.00,56.0,WeatherDisplay:10.37,2013-10-24 13:25:00,
2013-10-24 09:30:00,35.7,33.6,30.00,WNW,295,0.2,1.2,92,0.00,BKN,SCT,0.00,58.0,WeatherDisplay:10.37,2013-10-24 13:30:00,
2013-10-24 09:35:00,35.9,33.8,30.00,WNW,295,0.2,1.2,92,0.00,BKN,SCT,0.00,69.0,WeatherDisplay:10.37,2013-10-24 13:35:00,
2013-10-24 09:40:00,36.1,33.7,30.00,WNW,295,0.0,1.2,91,0.00,BKN,SCT,0.00,70.0,WeatherDisplay:10.37,2013-10-24 13:40:00,
2013-10-24 09:45:00,36.3,33.9,30.00,WNW,296,0.1,1.2,91,0.00,BKN,SCT,0.00,76.0,WeatherDisplay:10.37,2013-10-24 13:45:00,
2013-10-24 09:50:00,36.5,33.8,30.00,WNW,296,0.0,1.2,90,0.01,RA,SCT,0.01,86.0,WeatherDisplay:10.37,2013-10-24 13:50:00,
2013-10-24 09:55:00,36.8,34.1,30.00,WNW,290,0.0,1.2,90,0.01,RA,SCT,0.01,90.0,WeatherDisplay:10.37,2013-10-24 13:55:00,
2013-10-24 10:00:00,37.0,34.3,30.00,West,276,1.1,2.3,90,0.01,BKN,SCT,0.01,90.0,WeatherDisplay:10.37,2013-10-24 14:00:00,
2013-10-24 10:05:00,37.3,34.4,30.00,WNW,290,0.0,1.2,89,0.01,BKN,SCT,0.01,83.0,WeatherDisplay:10.37,2013-10-24 14:05:00,
2013-10-24 10:10:00,37.5,34.3,30.01,NW,311,1.3,3.5,88,0.01,BKN,SCT,0.01,90.0,WeatherDisplay:10.37,2013-10-24 14:10:00,
2013-10-24 10:15:00,37.7,34.5,30.01,NW,312,0.9,2.0,88,0.01,BKN,SCT,0.01,102.0,WeatherDisplay:10.37,2013-10-24 14:15:00,
2013-10-24 10:20:00,37.8,34.3,30.01,NW,307,1.2,3.5,87,0.01,BKN,SCT,0.01,127.0,WeatherDisplay:10.37,2013-10-24 14:20:00,
2013-10-24 10:25:00,38.0,34.8,30.01,NW,307,0.0,2.3,88,0.01,BKN,SCT,0.01,127.0,WeatherDisplay:10.37,2013-10-24 14:25:00,
2013-10-24 10:30:00,38.4,34.9,30.01,NW,308,0.2,1.2,87,0.01,BKN,SCT,0.01,144.0,WeatherDisplay:10.37,2013-10-24 14:30:00,
2013-10-24 10:35:00,38.6,35.1,30.01,NW,306,0.0,1.2,87,0.01,BKN,SCT,0.01,137.0,WeatherDisplay:10.37,2013-10-24 14:35:00,
2013-10-24 10:40:00,38.9,35.1,30.01,WNW,299,0.5,1.2,86,0.01,BKN,SCT,0.01,148.0,WeatherDisplay:10.37,2013-10-24 14:40:00,
2013-10-24 10:45:00,39.2,35.1,30.01,West,279,0.9,3.5,85,0.01,BKN,SCT,0.01,149.0,WeatherDisplay:10.37,2013-10-24 14:45:00,
2013-10-24 10:50:00,39.3,34.9,30.01,NW,309,0.8,2.3,84,0.00,BKN,SCT,0.01,162.0,WeatherDisplay:10.37,2013-10-24 14:50:00,
2013-10-24 10:55:00,39.6,35.2,30.02,NW,310,1.2,3.5,84,0.00,BKN,SCT,0.01,162.0,WeatherDisplay:10.37,2013-10-24 14:55:00,
2013-10-24 11:00:00,39.9,35.5,30.02,NW,318,1.5,2.3,84,0.00,BKN,SCT,0.01,151.0,WeatherDisplay:10.37,2013-10-24 15:00:00,
2013-10-24 11:05:00,40.0,34.6,30.02,NW,313,1.4,3.5,81,0.00,BKN,SCT,0.01,142.0,WeatherDisplay:10.37,2013-10-24 15:05:00,
2013-10-24 11:10:00,39.8,34.4,30.02,NW,307,0.3,2.3,81,0.00,BKN,SCT,0.01,162.0,WeatherDisplay:10.37,2013-10-24 15:10:00,
2013-10-24 11:15:00,40.0,34.6,30.02,NW,308,1.5,3.5,81,0.00,BKN,SCT,0.01,146.0,WeatherDisplay:10.37,2013-10-24 15:15:00,
2013-10-24 11:20:00,40.1,34.4,30.02,NW,306,0.4,2.3,80,0.00,BKN,SCT,0.01,137.0,WeatherDisplay:10.37,2013-10-24 15:20:00,
2013-10-24 11:25:00,40.2,34.2,30.02,NW,312,1.5,3.5,79,0.00,BKN,SCT,0.01,213.0,WeatherDisplay:10.37,2013-10-24 15:25:00,
2013-10-24 11:30:00,40.5,34.8,30.02,NW,315,0.4,1.2,80,0.00,BKN,SCT,0.01,183.0,WeatherDisplay:10.37,2013-10-24 15:30:00,
2013-10-24 11:35:00,40.9,34.9,30.03,NW,315,0.1,1.0,79,0.00,BKN,SCT,0.01,176.0,WeatherDisplay:10.37,2013-10-24 15:35:00,
2013-10-24 11:40:00,41.3,35.3,30.02,NW,312,0.1,1.2,79,0.00,BKN,SCT,0.01,206.0,WeatherDisplay:10.37,2013-10-24 15:40:00,
2013-10-24 11:45:00,41.6,35.2,30.03,WNW,298,1.5,3.5,78,0.00,BKN,SCT,0.01,139.0,WeatherDisplay:10.37,2013-10-24 15:45:00,
2013-10-24 11:50:00,42.1,35.4,30.02,West,279,0.3,1.2,77,0.00,BKN,SCT,0.01,186.0,WeatherDisplay:10.37,2013-10-24 15:50:00,
2013-10-24 11:55:00,42.3,35.3,30.03,NW,309,0.4,2.3,76,0.00,BKN,SCT,0.01,394.0,WeatherDisplay:10.37,2013-10-24 15:55:00,
2013-10-24 12:00:00,42.5,34.8,30.03,WNW,301,1.6,4.6,74,0.00,BKN,SCT,0.01,149.0,WeatherDisplay:10.37,2013-10-24 16:00:00,
2013-10-24 12:05:00,42.3,34.6,30.03,NW,315,1.2,3.5,74,0.00,BKN,SCT,0.01,156.0,WeatherDisplay:10.37,2013-10-24 16:05:00,
2013-10-24 12:10:00,42.2,34.2,30.03,WNW,302,2.3,4.6,73,0.00,BKN,SCT,0.01,457.0,WeatherDisplay:10.37,2013-10-24 16:10:00,
2013-10-24 12:15:00,42.1,34.1,30.03,NW,312,1.5,3.5,73,0.00,BKN,SCT,0.01,155.0,WeatherDisplay:10.37,2013-10-24 16:15:00,
2013-10-24 12:20:00,42.4,35.0,30.02,NW,312,1.0,3.5,75,0.00,BKN,SCT,0.01,432.0,WeatherDisplay:10.37,2013-10-24 16:20:00,
2013-10-24 12:25:00,42.7,34.3,30.03,NW,312,1.2,2.3,72,0.00,BKN,SCT,0.01,69.0,WeatherDisplay:10.37,2013-10-24 16:25:00,
2013-10-24 12:30:00,42.5,33.8,30.03,WNW,302,0.0,1.2,71,0.00,BKN,SCT,0.01,104.0,WeatherDisplay:10.37,2013-10-24 16:30:00,
2013-10-24 12:35:00,43.0,34.9,30.02,South,183,0.6,2.3,73,0.00,BKN,SCT,0.01,686.0,WeatherDisplay:10.37,2013-10-24 16:35:00,
2013-10-24 12:40:00,44.0,35.2,30.02,WNW,288,1.1,2.3,71,0.00,BKN,SCT,0.01,707.0,WeatherDisplay:10.37,2013-10-24 16:40:00,
2013-10-24 12:45:00,44.8,34.9,30.02,West,281,1.8,4.6,68,0.00,BKN,SCT,0.01,752.0,WeatherDisplay:10.37,2013-10-24 16:45:00,
2013-10-24 12:50:00,45.3,35.0,30.02,WNW,294,0.8,3.0,67,0.00,BKN,SCT,0.01,155.0,WeatherDisplay:10.37,2013-10-24 16:50:00,
2013-10-24 12:55:00,45.6,34.5,30.02,NNW,330,1.1,2.3,65,0.00,BKN,SCT,0.01,786.0,WeatherDisplay:10.37,2013-10-24 16:55:00,
2013-10-24 13:00:00,45.8,34.3,30.02,NW,309,1.0,2.3,64,0.00,BKN,SCT,0.01,185.0,WeatherDisplay:10.37,2013-10-24 17:00:00,
2013-10-24 13:05:00,46.0,33.7,30.02,NW,326,0.7,3.5,62,0.00,BKN,SCT,0.01,803.0,WeatherDisplay:10.37,2013-10-24 17:05:00,
2013-10-24 13:10:00,45.8,33.1,30.02,NW,320,0.9,3.5,61,0.00,BKN,SCT,0.01,165.0,WeatherDisplay:10.37,2013-10-24 17:10:00,
2013-10-24 13:15:00,45.6,32.9,30.02,WSW,246,0.8,3.5,61,0.00,BKN,SCT,0.01,770.0,WeatherDisplay:10.37,2013-10-24 17:15:00,
2013-10-24 13:20:00,45.4,32.3,30.02,NW,309,0.6,2.3,60,0.00,BKN,SCT,0.01,70.0,WeatherDisplay:10.37,2013-10-24 17:20:00,
2013-10-24 13:25:00,44.7,30.8,30.02,NW,306,1.4,3.5,58,0.00,BKN,SCT,0.01,76.0,WeatherDisplay:10.37,2013-10-24 17:25:00,
2013-10-24 13:30:00,44.4,31.0,30.02,NW,306,0.0,1.2,59,0.00,BKN,SCT,0.01,111.0,WeatherDisplay:10.37,2013-10-24 17:30:00,
2013-10-24 13:35:00,44.3,30.9,30.02,NW,316,0.8,2.3,59,0.00,BKN,SCT,0.01,153.0,WeatherDisplay:10.37,2013-10-24 17:35:00,
2013-10-24 13:40:00,44.6,31.6,30.02,NNW,331,0.1,1.2,60,0.00,BKN,SCT,0.01,853.0,WeatherDisplay:10.37,2013-10-24 17:40:00,
2013-10-24 13:45:00,45.8,32.7,30.01,NW,323,1.9,4.0,60,0.00,BKN,SCT,0.01,244.0,WeatherDisplay:10.37,2013-10-24 17:45:00,
2013-10-24 13:50:00,46.1,31.3,30.01,NW,316,1.3,3.5,56,0.00,BKN,SCT,0.01,211.0,WeatherDisplay:10.37,2013-10-24 17:50:00,
2013-10-24 13:55:00,46.3,31.0,30.01,NW,319,1.4,3.5,55,0.00,BKN,SCT,0.01,230.0,WeatherDisplay:10.37,2013-10-24 17:55:00,
2013-10-24 14:00:00,47.0,31.7,30.01,NNW,327,1.2,3.5,55,0.00,BKN,SCT,0.01,705.0,WeatherDisplay:10.37,2013-10-24 18:00:00,
2013-10-24 14:05:00,47.2,30.0,30.01,NW,311,4.0,8.1,51,0.00,BKN,SCT,0.01,69.0,WeatherDisplay:10.37,2013-10-24 18:05:00,
2013-10-24 14:10:00,46.7,30.0,30.02,NW,322,2.6,4.6,52,0.00,BKN,SCT,0.01,710.0,WeatherDisplay:10.37,2013-10-24 18:10:00,
2013-10-24 14:15:00,46.2,29.5,30.01,NW,323,2.1,4.0,52,0.00,BKN,SCT,0.01,63.0,WeatherDisplay:10.37,2013-10-24 18:15:00,
2013-10-24 14:20:00,46.0,29.3,30.01,NW,305,0.8,2.3,52,0.00,BKN,SCT,0.01,645.0,WeatherDisplay:10.37,2013-10-24 18:20:00,
2013-10-24 14:25:00,46.7,30.0,30.01,NW,319,1.8,3.5,52,0.00,BKN,SCT,0.01,640.0,WeatherDisplay:10.37,2013-10-24 18:25:00,
2013-10-24 14:30:00,47.2,30.0,30.01,NW,322,1.7,3.5,51,0.00,BKN,SCT,0.01,693.0,WeatherDisplay:10.37,2013-10-24 18:30:00,
2013-10-24 14:35:00,47.3,30.1,30.01,NW,319,1.8,3.5,51,0.00,BKN,SCT,0.01,693.0,WeatherDisplay:10.37,2013-10-24 18:35:00,
2013-10-24 14:40:00,46.7,29.5,30.02,NW,319,1.3,3.5,51,0.00,BKN,SCT,0.01,98.0,WeatherDisplay:10.37,2013-10-24 18:40:00,
2013-10-24 14:45:00,45.9,29.7,30.02,WNW,299,1.0,2.3,53,0.00,BKN,SCT,0.01,95.0,WeatherDisplay:10.37,2013-10-24 18:45:00,
2013-10-24 14:50:00,46.1,30.4,30.01,NW,314,1.5,3.5,54,0.00,BKN,SCT,0.01,46.0,WeatherDisplay:10.37,2013-10-24 18:50:00,
2013-10-24 14:55:00,45.7,29.1,30.01,NW,321,1.7,4.6,52,0.00,BKN,SCT,0.01,42.0,WeatherDisplay:10.37,2013-10-24 18:55:00,
2013-10-24 15:00:00,45.1,28.5,30.02,WNW,293,1.7,3.5,52,0.00,BKN,SCT,0.01,37.0,WeatherDisplay:10.37,2013-10-24 19:00:00,
2013-10-24 15:05:00,45.2,28.1,30.02,NW,317,2.4,3.5,51,0.00,BKN,SCT,0.01,668.0,WeatherDisplay:10.37,2013-10-24 19:05:00,
2013-10-24 15:10:00,46.3,29.1,30.02,NW,311,2.2,3.5,51,0.00,BKN,SCT,0.01,626.0,WeatherDisplay:10.37,2013-10-24 19:10:00,
2013-10-24 15:15:00,46.6,29.4,30.02,NW,311,1.6,3.5,51,0.00,BKN,SCT,0.01,158.0,WeatherDisplay:10.37,2013-10-24 19:15:00,
2013-10-24 15:20:00,46.2,29.1,30.02,NW,308,0.8,2.3,51,0.00,BKN,SCT,0.01,127.0,WeatherDisplay:10.37,2013-10-24 19:20:00,
2013-10-24 15:25:00,45.9,28.8,30.02,NW,304,1.8,4.0,51,0.00,BKN,SCT,0.01,74.0,WeatherDisplay:10.37,2013-10-24 19:25:00,
2013-10-24 15:30:00,45.8,29.6,30.02,NW,311,0.4,1.2,53,0.00,BKN,SCT,0.01,107.0,WeatherDisplay:10.37,2013-10-24 19:30:00,
2013-10-24 15:35:00,45.7,29.1,30.02,NW,313,2.5,4.6,52,0.00,BKN,SCT,0.01,121.0,WeatherDisplay:10.37,2013-10-24 19:35:00,
2013-10-24 15:40:00,45.6,29.4,30.03,NW,312,0.7,2.3,53,0.00,BKN,SCT,0.01,209.0,WeatherDisplay:10.37,2013-10-24 19:40:00,
2013-10-24 15:45:00,46.0,29.3,30.03,NW,322,1.5,3.5,52,0.00,BKN,SCT,0.01,151.0,WeatherDisplay:10.37,2013-10-24 19:45:00,
2013-10-24 15:50:00,46.5,28.3,30.03,NNW,333,1.2,3.5,49,0.00,BKN,SCT,0.01,540.0,WeatherDisplay:10.37,2013-10-24 19:50:00,
2013-10-24 15:55:00,47.5,29.8,30.03,NNW,330,0.8,3.5,50,0.00,BKN,SCT,0.01,526.0,WeatherDisplay:10.37,2013-10-24 19:55:00,
2013-10-24 16:00:00,47.4,28.7,30.03,WNW,301,1.9,3.5,48,0.00,BKN,SCT,0.01,86.0,WeatherDisplay:10.37,2013-10-24 20:00:00,
2013-10-24 16:05:00,46.9,28.7,30.03,NW,304,1.5,2.3,49,0.00,BKN,SCT,0.01,100.0,WeatherDisplay:10.37,2013-10-24 20:05:00,
2013-10-24 16:10:00,46.6,28.9,30.03,NW,315,0.5,2.3,50,0.00,BKN,SCT,0.01,132.0,WeatherDisplay:10.37,2013-10-24 20:10:00,
2013-10-24 16:15:00,47.2,30.0,30.03,West,260,1.8,5.0,51,0.00,BKN,SCT,0.01,526.0,WeatherDisplay:10.37,2013-10-24 20:15:00,
2013-10-24 16:20:00,47.4,28.7,30.03,NW,306,2.2,4.0,48,0.00,BKN,SCT,0.01,155.0,WeatherDisplay:10.37,2013-10-24 20:20:00,
2013-10-24 16:25:00,47.2,27.5,30.03,NW,320,0.4,3.5,46,0.00,BKN,SCT,0.01,139.0,WeatherDisplay:10.37,2013-10-24 20:25:00,
2013-10-24 16:30:00,47.1,27.4,30.03,NW,321,0.1,1.2,46,0.00,BKN,SCT,0.01,183.0,WeatherDisplay:10.37,2013-10-24 20:30:00,
2013-10-24 16:35:00,47.4,28.7,30.04,NNW,327,2.5,4.0,48,0.00,BKN,SCT,0.01,141.0,WeatherDisplay:10.37,2013-10-24 20:35:00,
2013-10-24 16:40:00,47.3,28.6,30.04,NW,306,1.6,3.5,48,0.00,BKN,SCT,0.01,95.0,WeatherDisplay:10.37,2013-10-24 20:40:00,
2013-10-24 16:45:00,46.9,27.2,30.04,NW,309,2.1,3.5,46,0.00,BKN,SCT,0.01,90.0,WeatherDisplay:10.37,2013-10-24 20:45:00,
2013-10-24 16:50:00,46.5,26.8,30.04,NW,317,3.2,5.0,46,0.00,BKN,SCT,0.01,62.0,WeatherDisplay:10.37,2013-10-24 20:50:00,
2013-10-24 16:55:00,46.1,26.4,30.04,WNW,302,0.5,3.5,46,0.00,BKN,SCT,0.01,69.0,WeatherDisplay:10.37,2013-10-24 20:55:00,
2013-10-24 17:00:00,46.2,27.6,30.04,WNW,302,0.0,1.2,48,0.00,BKN,SCT,0.01,49.0,WeatherDisplay:10.37,2013-10-24 21:00:00,
2013-10-24 17:05:00,46.3,27.2,30.04,NW,316,1.2,3.5,47,0.00,BKN,SCT,0.01,46.0,WeatherDisplay:10.37,2013-10-24 21:05:00,
2013-10-24 17:10:00,46.4,27.8,30.04,NW,314,2.1,3.5,48,0.00,BKN,SCT,0.01,44.0,WeatherDisplay:10.37,2013-10-24 21:10:00,
2013-10-24 17:15:00,46.5,27.3,30.05,NW,314,0.3,2.3,47,0.00,BKN,SCT,0.01,58.0,WeatherDisplay:10.37,2013-10-24 21:15:00,
2013-10-24 17:20:00,46.5,27.8,30.05,NW,319,2.0,4.0,48,0.00,BKN,SCT,0.01,42.0,WeatherDisplay:10.37,2013-10-24 21:20:00,
2013-10-24 17:25:00,46.4,27.8,30.05,West,279,0.6,3.5,48,0.00,BKN,SCT,0.01,53.0,WeatherDisplay:10.37,2013-10-24 21:25:00,
2013-10-24 17:30:00,46.4,27.8,30.05,NW,319,2.2,3.0,48,0.00,BKN,SCT,0.01,56.0,WeatherDisplay:10.37,2013-10-24 21:30:00,
2013-10-24 17:35:00,46.3,27.7,30.05,NW,321,0.1,1.2,48,0.00,BKN,SCT,0.01,63.0,WeatherDisplay:10.37,2013-10-24 21:35:00,
2013-10-24 17:40:00,46.4,28.8,30.05,West,271,1.5,2.3,50,0.00,BKN,SCT,0.01,65.0,WeatherDisplay:10.37,2013-10-24 21:40:00,
2013-10-24 17:45:00,46.5,28.8,30.05,NW,318,2.3,4.6,50,0.00,BKN,SCT,0.01,56.0,WeatherDisplay:10.37,2013-10-24 21:45:00,
2013-10-24 17:50:00,46.5,28.8,30.06,NW,317,1.4,3.5,50,0.00,BKN,SCT,0.01,35.0,WeatherDisplay:10.37,2013-10-24 21:50:00,
2013-10-24 17:55:00,46.3,28.2,30.06,NW,318,2.4,3.5,49,0.00,BKN,SCT,0.01,44.0,WeatherDisplay:10.37,2013-10-24 21:55:00,
2013-10-24 18:00:00,46.1,28.5,30.06,NW,313,1.8,3.5,50,0.00,BKN,SCT,0.01,35.0,WeatherDisplay:10.37,2013-10-24 22:00:00,
2013-10-24 18:05:00,45.9,28.8,30.06,NW,318,1.0,3.5,51,0.00,BKN,SCT,0.01,30.0,WeatherDisplay:10.37,2013-10-24 22:05:00,
2013-10-24 18:10:00,45.7,29.1,30.07,NW,317,1.4,3.5,52,0.00,BKN,SCT,0.01,28.0,WeatherDisplay:10.37,2013-10-24 22:10:00,
2013-10-24 18:15:00,45.4,29.3,30.07,NW,324,2.8,4.6,53,0.00,BKN,SCT,0.01,16.0,WeatherDisplay:10.37,2013-10-24 22:15:00,
2013-10-24 18:20:00,45.1,30.3,30.07,NW,323,1.0,2.3,56,0.00,BKN,SCT,0.01,12.0,WeatherDisplay:10.37,2013-10-24 22:20:00,
2013-10-24 18:25:00,44.6,30.7,30.08,NNW,327,1.0,3.5,58,0.00,BKN,SCT,0.01,9.0,WeatherDisplay:10.37,2013-10-24 22:25:00,
2013-10-24 18:30:00,44.1,31.1,30.08,NW,325,1.2,2.3,60,0.00,BKN,SCT,0.01,5.0,WeatherDisplay:10.37,2013-10-24 22:30:00,
2013-10-24 18:35:00,43.6,31.4,30.08,NW,319,0.8,3.5,62,0.00,BKN,SCT,0.01,0.0,WeatherDisplay:10.37,2013-10-24 22:35:00,
2013-10-24 18:40:00,43.2,31.4,30.08,NW,313,1.1,3.5,63,0.00,BKN,SCT,0.01,0.0,WeatherDisplay:10.37,2013-10-24 22:40:00,
2013-10-24 18:45:00,42.9,31.6,30.08,NW,319,1.0,3.5,64,0.00,BKN,SCT,0.01,0.0,WeatherDisplay:10.37,2013-10-24 22:45:00,
2013-10-24 18:50:00,42.7,31.7,30.09,NW,315,1.2,2.3,65,0.00,BKN,SCT,0.01,0.0,WeatherDisplay:10.37,2013-10-24 22:50:00,
2013-10-24 18:55:00,42.5,31.6,30.09,NW,315,0.4,1.2,65,0.00,BKN,SCT,0.01,0.0,WeatherDisplay:10.37,2013-10-24 22:55:00,
2013-10-24 19:00:00,42.4,31.8,30.09,NW,315,0.0,3.0,66,0.00,BKN,SCT,0.01,0.0,WeatherDisplay:10.37,2013-10-24 23:00:00,
2013-10-24 19:05:00,42.3,31.7,30.10,NW,310,1.0,2.3,66,0.00,BKN,SCT,0.01,0.0,WeatherDisplay:10.37,2013-10-24 23:05:00,
2013-10-24 19:10:00,42.1,31.6,30.10,NW,320,2.7,4.6,66,0.00,BKN,SCT,0.01,0.0,WeatherDisplay:10.37,2013-10-24 23:10:00,
2013-10-24 19:15:00,42.0,31.8,30.10,WNW,299,1.4,4.0,67,0.00,BKN,SCT,0.01,0.0,WeatherDisplay:10.37,2013-10-24 23:15:00,
2013-10-24 19:20:00,41.9,31.7,30.10,NW,306,0.6,2.3,67,0.00,BKN,SCT,0.01,0.0,WeatherDisplay:10.37,2013-10-24 23:20:00,
2013-10-24 19:25:00,41.8,32.0,30.11,NNW,327,2.2,3.5,68,0.00,BKN,SCT,0.01,0.0,WeatherDisplay:10.37,2013-10-24 23:25:00,
2013-10-24 19:30:00,41.6,32.2,30.11,NW,320,0.8,3.5,69,0.00,BKN,SCT,0.01,0.0,WeatherDisplay:10.37,2013-10-24 23:30:00,
2013-10-24 19:35:00,41.4,32.3,30.11,NW,312,0.7,2.3,70,0.00,BKN,SCT,0.01,0.0,WeatherDisplay:10.37,2013-10-24 23:35:00,
2013-10-24 19:40:00,41.3,32.2,30.11,NW,312,0.9,2.3,70,0.00,BKN,SCT,0.01,0.0,WeatherDisplay:10.37,2013-10-24 23:40:00,
2013-10-24 19:45:00,41.1,32.4,30.11,NW,312,0.4,2.3,71,0.00,BKN,SCT,0.01,0.0,WeatherDisplay:10.37,2013-10-24 23:45:00,
2013-10-24 19:50:00,40.9,32.6,30.12,WNW,291,0.4,2.3,72,0.00,BKN,SCT,0.01,0.0,WeatherDisplay:10.37,2013-10-24 23:50:00,
2013-10-24 19:55:00,40.7,32.7,30.12,NW,315,0.4,3.5,73,0.00,BKN,SCT,0.01,0.0,WeatherDisplay:10.37,2013-10-24 23:55:00,
2013-10-24 20:00:00,40.5,32.5,30.12,NW,315,0.3,1.2,73,0.00,BKN,SCT,0.01,0.0,WeatherDisplay:10.37,2013-10-25 00:00:00,
2013-10-24 20:05:00,40.3,32.7,30.12,NW,315,0.6,2.3,74,0.00,BKN,SCT,0.01,0.0,WeatherDisplay:10.37,2013-10-25 00:05:00,
2013-10-24 20:10:00,40.0,32.7,30.12,WNW,297,0.0,1.2,75,0.00,BKN,SCT,0.01,0.0,WeatherDisplay:10.37,2013-10-25 00:10:00,
2013-10-24 20:15:00,39.8,32.8,30.12,WNW,297,0.1,2.3,76,0.00,BKN,SCT,0.01,0.0,WeatherDisplay:10.37,2013-10-25 00:15:00,
2013-10-24 20:20:00,39.7,32.8,30.12,WNW,301,0.1,1.2,76,0.00,BKN,SCT,0.01,0.0,WeatherDisplay:10.37,2013-10-25 00:20:00,
2013-10-24 20:25:00,39.5,32.9,30.12,NW,311,0.2,2.3,77,0.00,BKN,SCT,0.01,0.0,WeatherDisplay:10.37,2013-10-25 00:25:00,
2013-10-24 20:30:00,39.3,32.7,30.12,WNW,289,0.1,1.2,77,0.00,BKN,SCT,0.01,0.0,WeatherDisplay:10.37,2013-10-25 00:30:00,
2013-10-24 20:35:00,39.2,32.9,30.12,NW,313,0.6,2.3,78,0.00,BKN,SCT,0.01,0.0,WeatherDisplay:10.37,2013-10-25 00:35:00,
2013-10-24 20:40:00,39.0,32.7,30.13,WNW,298,0.1,3.5,78,0.00,BKN,SCT,0.01,0.0,WeatherDisplay:10.37,2013-10-25 00:40:00,
2013-10-24 20:45:00,38.9,32.9,30.13,WNW,298,0.1,1.2,79,0.00,BKN,SCT,0.01,0.0,WeatherDisplay:10.37,2013-10-25 00:45:00,
2013-10-24 20:50:00,38.6,32.6,30.13,West,272,0.2,3.5,79,0.00,BKN,SCT,0.01,0.0,WeatherDisplay:10.37,2013-10-25 00:50:00,
2013-10-24 20:55:00,38.5,32.9,30.13,WNW,284,0.1,1.2,80,0.00,BKN,SCT,0.01,0.0,WeatherDisplay:10.37,2013-10-25 00:55:00,
2013-10-24 21:00:00,38.4,32.8,30.13,WNW,284,0.5,1.2,80,0.00,BKN,SCT,0.01,0.0,WeatherDisplay:10.37,2013-10-25 01:00:00,
2013-10-24 21:05:00,38.3,33.0,30.13,West,278,0.1,3.5,81,0.00,SCT,,0.01,0.0,WeatherDisplay:10.37,2013-10-25 01:05:00,
2013-10-24 21:10:00,38.3,33.0,30.13,WNW,287,0.1,1.2,81,0.00,SCT,,0.01,0.0,WeatherDisplay:10.37,2013-10-25 01:10:00,
2013-10-24 21:15:00,38.2,33.2,30.13,WNW,287,0.0,1.2,82,0.00,SCT,,0.01,0.0,WeatherDisplay:10.37,2013-10-25 01:15:00,
2013-10-24 21:20:00,38.1,33.1,30.14,WNW,286,0.4,1.2,82,0.00,SCT,,0.01,0.0,WeatherDisplay:10.37,2013-10-25 01:20:00,
2013-10-24 21:25:00,38.0,33.0,30.14,WNW,291,0.3,2.3,82,0.00,SCT,,0.01,0.0,WeatherDisplay:10.37,2013-10-25 01:25:00,
2013-10-24 21:30:00,37.9,33.2,30.14,WNW,291,0.1,1.2,83,0.00,SCT,,0.01,0.0,WeatherDisplay:10.37,2013-10-25 01:30:00,
2013-10-24 21:35:00,37.8,33.1,30.14,WNW,298,1.1,3.5,83,0.00,SCT,,0.01,0.0,WeatherDisplay:10.37,2013-10-25 01:35:00,
2013-10-24 21:40:00,37.8,33.1,30.14,WNW,298,0.1,1.2,83,0.00,SCT,,0.01,0.0,WeatherDisplay:10.37,2013-10-25 01:40:00,
2013-10-24 21:45:00,37.7,33.0,30.14,WNW,303,0.9,2.3,83,0.00,SCT,,0.01,0.0,WeatherDisplay:10.37,2013-10-25 01:45:00,
2013-10-24 21:50:00,37.6,32.9,30.15,NW,309,0.4,2.0,83,0.00,SCT,,0.01,0.0,WeatherDisplay:10.37,2013-10-25 01:50:00,
2013-10-24 21:55:00,37.5,33.1,30.15,NW,309,0.0,0.0,84,0.00,SCT,,0.01,0.0,WeatherDisplay:10.37,2013-10-25 01:55:00,
2013-10-24 22:00:00,37.4,33.0,30.15,NW,308,0.8,2.3,84,0.00,SCT,,0.01,0.0,WeatherDisplay:10.37,2013-10-25 02:00:00,
2013-10-24 22:05:00,37.3,32.9,30.15,NW,308,0.5,2.3,84,0.00,FEW,SCT,0.01,0.0,WeatherDisplay:10.37,2013-10-25 02:05:00,
2013-10-24 22:10:00,37.2,33.1,30.15,NW,310,0.8,2.3,85,0.00,FEW,SCT,0.01,0.0,WeatherDisplay:10.37,2013-10-25 02:10:00,
2013-10-24 22:15:00,37.1,33.0,30.15,NW,310,0.0,1.2,85,0.00,FEW,SCT,0.01,0.0,WeatherDisplay:10.37,2013-10-25 02:15:00,
2013-10-24 22:20:00,37.0,32.9,30.15,NW,310,0.2,1.2,85,0.00,FEW,SCT,0.01,0.0,WeatherDisplay:10.37,2013-10-25 02:20:00,
2013-10-24 22:25:00,36.9,32.8,30.16,NW,310,0.3,1.2,85,0.00,FEW,SCT,0.01,0.0,WeatherDisplay:10.37,2013-10-25 02:25:00,
2013-10-24 22:30:00,36.9,32.8,30.16,NW,308,0.7,2.3,85,0.00,FEW,SCT,0.01,0.0,WeatherDisplay:10.37,2013-10-25 02:30:00,
2013-10-24 22:35:00,36.8,32.7,30.16,NW,311,0.1,2.3,85,0.00,FEW,SCT,0.01,0.0,WeatherDisplay:10.37,2013-10-25 02:35:00,
2013-10-24 22:40:00,36.8,32.7,30.16,NW,311,0.1,1.2,85,0.00,FEW,SCT,0.01,0.0,WeatherDisplay:10.37,2013-10-25 02:40:00,
2013-10-24 22:45:00,36.6,32.5,30.16,NW,311,0.0,0.0,85,0.00,FEW,SCT,0.01,0.0,WeatherDisplay:10.37,2013-10-25 02:45:00,
2013-10-24 22:50:00,36.5,32.4,30.16,NW,311,0.1,2.3,85,0.00,FEW,SCT,0.01,0.0,WeatherDisplay:10.37,2013-10-25 02:50:00,
2013-10-24 22:55:00,36.4,32.3,30.16,NW,311,0.1,1.2,85,0.00,FEW,SCT,0.01,0.0,WeatherDisplay:10.37,2013-10-25 02:55:00,
2013-10-24 23:00:00,36.3,32.2,30.16,NW,311,0.2,1.2,85,0.00,FEW,SCT,0.01,0.0,WeatherDisplay:10.37,2013-10-25 03:00:00,
2013-10-24 23:05:00,36.2,32.1,30.16,NW,311,0.0,1.2,85,0.00,FEW,SCT,0.01,0.0,WeatherDisplay:10.37,2013-10-25 03:05:00,
2013-10-24 23:10:00,36.1,32.3,30.16,NW,311,0.0,0.0,86,0.00,FEW,SCT,0.01,0.0,WeatherDisplay:10.37,2013-10-25 03:10:00,
2013-10-24 23:15:00,36.0,32.2,30.16,NW,311,0.3,1.2,86,0.00,FEW,SCT,0.01,0.0,WeatherDisplay:10.37,2013-10-25 03:15:00,
2013-10-24 23:20:00,35.9,32.1,30.16,NW,311,0.1,1.2,86,0.00,FEW,SCT,0.01,0.0,WeatherDisplay:10.37,2013-10-25 03:20:00,
2013-10-24 23:25:00,35.8,32.0,30.16,NW,311,0.0,1.2,86,0.00,FEW,SCT,0.01,0.0,WeatherDisplay:10.37,2013-10-25 03:25:00,
2013-10-24 23:30:00,35.7,31.9,30.16,NW,311,0.1,1.2,86,0.00,FEW,SCT,0.01,0.0,WeatherDisplay:10.37,2013-10-25 03:30:00,
2013-10-24 23:35:00,35.6,31.8,30.16,NW,311,0.2,1.2,86,0.00,FEW,SCT,0.01,0.0,WeatherDisplay:10.37,2013-10-25 03:35:00,
2013-10-24 23:40:00,35.5,32.0,30.16,NW,311,0.3,2.3,87,0.00,FEW,SCT,0.01,0.0,WeatherDisplay:10.37,2013-10-25 03:40:00,
2013-10-24 23:45:00,35.4,31.9,30.16,NW,311,0.1,1.2,87,0.00,FEW,SCT,0.01,0.0,WeatherDisplay:10.37,2013-10-25 03:45:00,
2013-10-24 23:50:00,35.3,31.8,30.17,NW,311,0.0,1.2,87,0.00,FEW,SCT,0.01,0.0,WeatherDisplay:10.37,2013-10-25 03:50:00,
2013-10-24 23:55:00,35.2,31.7,30.17,NW,311,0.5,2.3,87,0.00,FEW,SCT,0.01,0.0,WeatherDisplay:10.37,2013-10-25 03:55:00,